Showing default

WGS F4 (USA 233), 38070

Orbit data source: Space-Track

WGS F4 (USA 233), 38070 is a payload satellite owned by USAF SMC (US) in GEO that was launched on Fri, 20 Jan 2012 UTC via a DELTA 4M+(5,4) launch vehicle from the Air Force Eastern Test Range (AFETR). Payload-class satellites include a variety of spacecraft equipped with specific instruments for various scientific and technological missions. These include communications satellites like Starlink; space stations such as the ISS; scientific satellites like the Hubble; Earth observation satellites from companies like Planet Labs, Umbra, and HawkEye 360; GPS; miniature CubeSats for education and research; and military/defense satellites.

Not visible in the next 10 days
Identifier
38070, 2012-003A
Orbit
GEO
Country
Flag of USUS
Related business
Manufacturer
Boeing/ES
Mission
Operational Defense Communications
Bus & Motor
BSS-702HP, R-4D-15-375
Mass
5,768 kg wet, ~2,500 kg dry
Launch date (UTC)
2012-01-20 (14 years ago)
Launch vehicle
DELTA 4M+(5,4)
Launch site
Air Force Eastern Test Range (AFETR)
Object type
Payload
Rocket body
Debris
Shape & HBR
Box + 2 Pan, 20.4 m
Radar Cross Section
52.962 m², Large (>1 m²)

Expand to show TLE details & history
Last TLE update: 1 day ago

TLE from 1 day ago
0 WGS F4 (USA 233)
1 38070U 12003A   26167.77362794  .00000000  00000-0  00000+0 0  9990
2 38070   0.0218  21.6728 0000810 254.5013 355.7808  1.00265093 44141
Epoch: 2026-06-16T18:34Z
TLE epoch observation values (Epoch: 2026-06-16T18:34:01.454Z)
Latitude
-0.04455°
Longitude
88.41483°
Altitude
35,784.544 km
Speed
3.075 km/s
True Right ascension
18h 07m 50s
True Declination
0° 02' 40"
Sunlit
Object was in daylight at epoch
Visualization orbit readout
Latitude
Unknown
Longitude
Unknown
Altitude
Unknown
Speed
Unknown
Apparent Right ascension
Unknown
Apparent Declination
Unknown
Sunlit
N/A
Visualization observer readout
Local Sidereal Time
12:32:07
Azimuth
Unknown
Elevation
Unknown
Doppler factor
Unknown
Orbital elements
Apogee altitude
35,792.957 km
Perigee altitude
35,786.126 km
Semi-major axis
42,167.678 km
Eccentricity
0.00008
Inclination
0.0218°
RAAN
21.6728°
Arg. of periapsis
254.5013°
True anomaly
355.78012°
Mean anomaly
355.7808°
Eccentric anomaly
355.78046°
Mean motion
0.25065 °/min
Orbital period
1,436.25 mins
BSTAR
0
Loading maneuver chart data...
Computing Atmospheric mass density...
Loading historical data...
Loading historical data...
Loading historical data...
Loading historical data...
Loading historical data...
Loading historical data...
Loading historical data...
Other satellites on launch #3 in the year 2012 (2012-01-20 UTC)

Documentation

Showing up to 5 results
|